VIZARD-METEO (RS38S)

Last updated on Mon Sep 15 2025 00:03:09 GMT+0000 (Coordinated Universal Time)

1 57189U 23091Z 25257.21796452 .00009155 00000+0 36268-3 0 9999 2 57189 97.5500 317.6283 0008019 337.8446 22.2444 15.25616572122464
UTC large
Height (km)
Speed (km/s)
/
Latitude / Longitude
Inclination (degrees)
Orbital Period (minutes)
Azimuth
Elevation
Range (km)
Doppler Factor

Next 0 passes for location: London (51.5072 / 0.1276)

Sorry there are no passes over London.